Карточка аэропорта UUBW

Внимание!
Информация на этой странице в стадии наполнения.
Если вы не увидели какой-то информации, или заметили неточность - пожалуйста сообщите нам!
Спасибо!
Команда RU-STAFF
Название аэропортаРаменское
Название аэропорта (англ.)Ramenskoye
Превышение1325 ft. (403.9 m.)
Координаты55°33.168', 38°8.9820000000002'
Высота перехода10000 ft
Эшелон переходаQNH>=1013hPa:FL110; QNH<1013hPa:FL120; QNH<977hPa:FL130
Коды ответчика
Зона ОрВДМосква РПИ (UUWV)
Данные METARUUBW 011800Z 12003MPS 9999 OVC019 M01/M03 Q1006 R30/250050 NOSIG
Проноз погоды (TAF)UUBW 011651Z 0118/0218 13003G08MPS 6000 FEW006 OVC012 TXM00/0212Z TNM03/0205Z TEMPO 0118/0203 1500 SHSN FEW005 BKN016CB TEMPO 0212/0218 2100 -SN BR OVC007
NOTAMshow/hide NOTAM
AWOS   TABLE

Информация о ВПП

ВПП Длина ВПП (м.) Покрытие Курс ВПП Частота ILS
124600Цементобетон121 
304600Цементобетон301 

Диспетчерские позиции


Сценарии

Сценарий
Нет результатов.


Спутниковое изображение